This demonstration page uses our WeatherBlox Daily Observations layout. Learn more.

39.01783, -85.05884

Hourly Observations for August 2, 2020

Temp ( °F °C ) Dew Point ( °F °C ) Humidity (%) Winds ( mph kmh ) Pressure ( in mb ) Visibility ( mi km ) Precip ( " mm )
12:35 am 00:35 Cloudy 72 22.2 70 21.1 94 94 SW 8 13 29.75 1007 10 16.0934 0.02 0.508
12:52 am 00:52 Cloudy 72 22.2 70 21.1 94 94 SSW 8 13 29.75 1007 10 16.0934 0.02 0.508
1:52 am 01:52 Cloudy 71 21.7 69 20.6 94 94 SSW 12 19 29.75 1007 10 16.0934 0 0
2:16 am 02:16 Cloudy 71 21.7 69 20.6 94 94 SSW 9 15 29.75 1008 8 12.87472 0 0
2:18 am 02:18 Cloudy 71 21.7 69 20.6 94 94 SSW 10 17 29.75 1008 8 12.87472 0 0
2:52 am 02:52 Cloudy with Light Rain 71 21.7 69 20.6 94 94 SSW 13 20 29.74 1007 5 8.0467 0.001 0.001
3:19 am 03:19 Cloudy 71 21.7 68 20 90 90 SW 16 26 29.75 1008 10 16.0934 0.001 0.001
3:52 am 03:52 Cloudy 70 21.1 67 19.4 90 90 SW 15 24 29.75 1007 10 16.0934 0.001 0.001
4:52 am 04:52 Cloudy with Light Rain 68 20 65 18.3 90 90 SW 13 20 29.78 1008 6 9.65604 0.001 0.001
4:54 am 04:54 Cloudy with Light Rain 68 20 65 18.3 90 90 SW 14 22 29.78 1008 6 9.65604 0.001 0.001
5:52 am 05:52 Cloudy 67 19.4 64 17.8 91 91 SW 13 20 29.8 1009 10 16.0934 0.001 0.001
6:26 am 06:26 Cloudy with Light Rain 67 19.4 64 17.8 91 91 SW 13 20 29.81 1009 2.5 4.02335 0.001 0.001
6:41 am 06:41 Cloudy with Light Rain 67 19.4 64 17.8 91 91 SW 13 20 29.82 1010 3 4.82802 0.001 0.001
6:52 am 06:52 Cloudy with Mist and Fog 66 18.9 64 17.8 93 93 SW 10 17 29.82 1010 2 3.21868 0.001 0.001
7:21 am 07:21 Cloudy with Light Rain 66 18.9 63 17.2 90 90 SW 14 22 29.84 1011 1.25 2.011675 0.01 0.254
7:36 am 07:36 Cloudy with Light Rain 66 18.9 63 17.2 90 90 WSW 16 26 29.85 1011 2 3.21868 0.02 0.508
7:52 am 07:52 Cloudy with Mist and Fog 66 18.9 63 17.2 90 90 W 13 20 29.85 1011 2 3.21868 0.02 0.508
8:40 am 08:40 Cloudy 65 18.3 62 16.7 90 90 W 12 19 29.88 1012 10 16.0934 0.01 0.254
8:52 am 08:52 Cloudy 65 18.3 62 16.7 90 90 W 13 20 29.88 1012 10 16.0934 0.01 0.254
9:49 am 09:49 Cloudy 64 18 63 17 94 94 WSW 9 15 29.91 1013 10 16.0934 0 0
9:52 am 09:52 Cloudy 65 18.3 62 16.7 90 90 WSW 10 17 29.91 1013 10 16.0934 0 0
10:52 am 10:52 Cloudy 67 19.4 62 16.7 84 84 W 10 17 29.93 1013 10 16.0934 0 0
11:52 am 11:52 Mostly Cloudy 70 21.1 63 17.2 79 79 W 14 22 29.94 1014 10 16.0934 0 0
12:52 pm 12:52 Partly Cloudy 73 22.8 62 16.7 69 69 W 13 20 29.93 1014 10 16.0934 0 0
1:52 pm 13:52 Partly Cloudy 75 23.9 62 16.7 64 64 SW 12 19 29.93 1014 10 16.0934 0 0
2:52 pm 14:52 Mostly Cloudy 77 25 63 17.2 62 62 WSW 12 19 29.93 1014 10 16.0934 0 0
3:52 pm 15:52 Mostly Cloudy 78 25.6 63 17.2 60 60 WSW 10 17 29.93 1013 10 16.0934 0 0
4:52 pm 16:52 Partly Cloudy 79 26.1 63 17.2 58 58 SW 10 17 29.92 1013 10 16.0934 0 0
5:52 pm 17:52 Mostly Cloudy 79 26.1 62 16.7 56 56 SSW 9 15 29.92 1013 10 16.0934 0 0
6:52 pm 18:52 Partly Cloudy 78 25.6 62 16.7 58 58 SW 12 19 29.92 1013 10 16.0934 0 0
7:52 pm 19:52 Mostly Cloudy 76 24.4 63 17.2 64 64 SSW 7 11 29.93 1014 10 16.0934 0 0
8:52 pm 20:52 Mostly Cloudy 73 22.8 64 17.8 74 74 SSW 5 7 29.95 1014 10 16.0934 0 0
9:52 pm 21:52 Mostly Cloudy 73 22.8 63 17.2 71 71 SW 6 9 29.96 1015 10 16.0934 0 0
10:52 pm 22:52 Partly Cloudy 71 21.7 63 17.2 76 76 SW 5 7 29.97 1015 10 16.0934 0 0
11:52 pm 23:52 Mostly Clear 68 20 63 17.2 84 84 S 6 9 29.97 1015 10 16.0934 0 0

Powered by AerisWeather